Weather History for Grove, OK

Change the Weather History Date:

Friday, February 8, 2013

  Actual Average (KSLG) Record (KSLG)
Temperature  
Mean Temperature 43 °F -  
Max Temperature 51 °F 47 °F 69 °F (1999)
Min Temperature 35 °F 29 °F 14 °F (2003)
Degree Days  
Heating Degree Days 22    
Moisture  
Dew Point 33 °F    
Average Humidity 75    
Maximum Humidity 93    
Minimum Humidity 47    
Precipitation  
Precipitation 0.00 in - - ()
Sea Level Pressure  
Sea Level Pressure 30.25 in    
Wind  
Wind Speed 5 mph (NNE)    
Max Wind Speed 12 mph    
Max Gust Speed 17 mph    
Visibility 9 miles    
Events      
Averages and records for this station are not official NWS values.
T = Trace of Precipitation, MM = Missing Value Source: NWS Daily Summary

Daily Weather History Graph

Daily Weather History Graph

Search for Another Location

Airport:

Trip Planner

Search our weather history database for the weather conditions in past years. The results will help you decide how hot, cold, wet, or windy it might be!

Date:

Astronomy

Feb. 08, 2013 Rise Set
Actual Time 7:14 AM CST 5:52 PM CST
Civil Twilight 6:47 AM CST 6:19 PM CST
Nautical Twilight 6:16 AM CST 6:49 PM CST
Astronomical Twilight 5:46 AM CST 7:20 PM CST
Moon 5:42 AM CST (2/8) 4:27 PM CST (2/8)
Length of Visible Light 11h 32m
Length of Day
10h 38m
Waning Crescent, 3% of the Moon is Illuminated
Feb 8
Waning Crescent
Feb 10
New
Feb 17
First Quarter
Feb 25
Full
Mar 4
Last Quarter

Hourly Weather History & Observations

Time (CST) Temp. Windchill Dew Point Humidity Pressure Visibility Wind Dir Wind Speed Gust Speed Precip Events Conditions
12:15 AM 41.0 °F 37.1 °F 37.4 °F 87% 30.14 in 7.0 mi North 5.8 mph - N/A   Clear
12:35 AM 41.0 °F 36.4 °F 37.4 °F 87% 30.16 in 7.0 mi North 6.9 mph - N/A   Scattered Clouds
12:55 AM 41.0 °F 38.0 °F 37.4 °F 87% 30.16 in 7.0 mi North 4.6 mph - N/A   Overcast
1:15 AM 41.0 °F 38.0 °F 37.4 °F 87% 30.17 in 7.0 mi North 4.6 mph - N/A   Overcast
1:35 AM 41.0 °F 34.3 °F 35.6 °F 81% 30.18 in 7.0 mi North 11.5 mph 17.3 mph N/A   Overcast
1:55 AM 41.0 °F 35.8 °F 35.6 °F 81% 30.18 in 7.0 mi NNE 8.1 mph - N/A   Overcast
2:15 AM 41.0 °F 38.0 °F 35.6 °F 81% 30.19 in 7.0 mi NNE 4.6 mph - N/A   Overcast
2:35 AM 39.2 °F 33.6 °F 35.6 °F 87% 30.20 in 7.0 mi North 8.1 mph - N/A   Overcast
2:55 AM 37.4 °F 30.8 °F 33.8 °F 87% 30.20 in 7.0 mi NNE 9.2 mph - N/A   Overcast
3:15 AM 37.4 °F 30.8 °F 33.8 °F 87% 30.21 in 7.0 mi NNE 9.2 mph - N/A   Overcast
3:35 AM 37.4 °F 32.8 °F 33.8 °F 87% 30.22 in 7.0 mi North 5.8 mph - N/A   Overcast
3:55 AM 37.4 °F 30.8 °F 33.8 °F 87% 30.22 in 7.0 mi NNE 9.2 mph - N/A   Overcast
4:15 AM 37.4 °F 32.1 °F 33.8 °F 87% 30.23 in 7.0 mi NNE 6.9 mph - N/A   Overcast
4:35 AM 37.4 °F 32.8 °F 33.8 °F 87% 30.24 in 7.0 mi NNE 5.8 mph - N/A   Overcast
4:55 AM 37.4 °F 31.4 °F 33.8 °F 87% 30.24 in 7.0 mi North 8.1 mph - N/A   Overcast
5:15 AM 35.6 °F 30.7 °F 32.0 °F 87% 30.25 in 7.0 mi North 5.8 mph - N/A   Overcast
5:55 AM 35.6 °F 29.2 °F 32.0 °F 87% 30.27 in 7.0 mi NNE 8.1 mph - N/A   Overcast
6:15 AM 35.6 °F 30.7 °F 32.0 °F 87% 30.27 in 7.0 mi NNE 5.8 mph - N/A   Overcast
6:35 AM 35.6 °F 29.9 °F 32.0 °F 87% 30.28 in 7.0 mi NNE 6.9 mph - N/A   Overcast
6:55 AM 35.6 °F 29.9 °F 32.0 °F 87% 30.29 in 7.0 mi North 6.9 mph - N/A   Overcast
7:15 AM 35.6 °F - 32.0 °F 87% 30.29 in 7.0 mi Calm Calm - N/A   Overcast
7:35 AM 35.6 °F 29.9 °F 32.0 °F 87% 30.29 in 7.0 mi NNE 6.9 mph - N/A   Overcast
7:55 AM 35.6 °F 31.7 °F 32.0 °F 87% 30.30 in 7.0 mi NNE 4.6 mph - N/A   Overcast
8:15 AM 35.6 °F 29.2 °F 32.0 °F 87% 30.30 in 5.0 mi NE 8.1 mph - N/A   Overcast
8:35 AM 35.6 °F 30.7 °F 32.0 °F 87% 30.32 in 5.0 mi NNE 5.8 mph - N/A   Mostly Cloudy
8:55 AM 35.6 °F 29.9 °F 32.0 °F 87% 30.32 in 7.0 mi NE 6.9 mph - N/A   Scattered Clouds
9:15 AM 35.6 °F 30.7 °F 32.0 °F 87% 30.32 in 7.0 mi NNE 5.8 mph - N/A   Scattered Clouds
9:35 AM 35.6 °F 31.7 °F 32.0 °F 87% 30.32 in 7.0 mi NE 4.6 mph - N/A   Scattered Clouds
9:55 AM 37.4 °F 32.8 °F 32.0 °F 81% 30.32 in 7.0 mi ENE 5.8 mph - N/A   Scattered Clouds
10:15 AM 37.4 °F 32.8 °F 32.0 °F 81% 30.32 in 10.0 mi NE 5.8 mph - N/A   Scattered Clouds
10:35 AM 39.2 °F 35.9 °F 32.0 °F 75% 30.32 in 10.0 mi NE 4.6 mph - N/A   Clear
10:55 AM 41.0 °F - 32.0 °F 70% 30.32 in 10.0 mi Calm Calm - N/A   Clear
11:15 AM 42.8 °F 40.1 °F 32.0 °F 66% 30.32 in 10.0 mi ENE 4.6 mph - N/A   Clear
11:35 AM 42.8 °F - 32.0 °F 66% 30.32 in 10.0 mi Calm Calm - N/A   Clear
11:55 AM 44.6 °F 42.2 °F 33.8 °F 66% 30.31 in 10.0 mi North 4.6 mph - N/A   Clear
12:15 PM 44.6 °F - 32.0 °F 61% 30.31 in 10.0 mi Calm Calm - N/A   Clear
12:35 PM 46.4 °F - 32.0 °F 57% 30.31 in 10.0 mi Calm Calm - N/A   Clear
12:55 PM 46.4 °F - 32.0 °F 57% 30.31 in 10.0 mi Calm Calm - N/A   Clear
1:15 PM 48.2 °F - 33.8 °F 58% 30.29 in 10.0 mi North 3.5 mph - N/A   Clear
1:35 PM 48.2 °F - 32.0 °F 54% 30.29 in 10.0 mi NW 3.5 mph - N/A   Clear
1:55 PM 50.0 °F - 33.8 °F 54% 30.29 in 10.0 mi North 4.6 mph - N/A   Clear
2:15 PM 50.0 °F - 32.0 °F 50% 30.28 in 10.0 mi North 3.5 mph - N/A   Clear
2:35 PM 50.0 °F - 32.0 °F 50% 30.28 in 10.0 mi Calm Calm - N/A   Clear
2:55 PM 50.0 °F - 33.8 °F 54% 30.25 in 10.0 mi ENE 4.6 mph - N/A   Clear
3:15 PM 51.8 °F - 32.0 °F 47% 30.23 in 10.0 mi ENE 9.2 mph - N/A   Clear
3:35 PM 51.8 °F - 32.0 °F 47% 30.24 in 10.0 mi East 3.5 mph - N/A   Clear
3:55 PM 51.8 °F - 32.0 °F 47% 30.25 in 10.0 mi North 3.5 mph - N/A   Clear
4:15 PM 51.8 °F - 32.0 °F 47% 30.25 in 10.0 mi Calm Calm - N/A   Clear
4:35 PM 51.8 °F - 32.0 °F 47% 30.24 in 10.0 mi Calm Calm - N/A   Clear
4:55 PM 51.8 °F - 33.8 °F 50% 30.24 in 2.0 mi Calm Calm - N/A   Haze
5:15 PM 50.0 °F - 33.8 °F 54% 30.24 in 10.0 mi Calm Calm - N/A   Clear
5:35 PM 50.0 °F - 33.8 °F 54% 30.24 in 10.0 mi Calm Calm - N/A   Clear
5:55 PM 46.4 °F 45.2 °F 32.0 °F 57% 30.23 in 10.0 mi ENE 3.5 mph - N/A   Clear
6:15 PM 44.6 °F - 32.0 °F 61% 30.23 in 10.0 mi Calm Calm - N/A   Clear
6:35 PM 44.6 °F 43.1 °F 32.0 °F 61% 30.23 in 10.0 mi ENE 3.5 mph - N/A   Clear
6:55 PM 42.8 °F 41.1 °F 33.8 °F 70% 30.23 in 10.0 mi ENE 3.5 mph - N/A   Clear
7:15 PM 42.8 °F - 33.8 °F 70% 30.23 in 10.0 mi Calm Calm - N/A   Clear
7:35 PM 42.8 °F - 33.8 °F 70% 30.23 in 10.0 mi Calm Calm - N/A   Clear
7:55 PM 41.0 °F 39.0 °F 33.8 °F 76% 30.23 in 10.0 mi East 3.5 mph - N/A   Clear
8:15 PM 41.0 °F - 33.8 °F 76% 30.23 in 10.0 mi Calm Calm - N/A   Clear
8:35 PM 39.2 °F - 33.8 °F 81% 30.22 in 10.0 mi Calm Calm - N/A   Clear
8:55 PM 37.4 °F - 33.8 °F 87% 30.22 in 10.0 mi Calm Calm - N/A   Clear
9:15 PM 37.4 °F - 33.8 °F 87% 30.22 in 10.0 mi Calm Calm - N/A   Clear
9:35 PM 37.4 °F - 33.8 °F 87% 30.22 in 10.0 mi Calm Calm - N/A   Clear
9:55 PM 35.6 °F - 33.8 °F 93% 30.22 in 10.0 mi Calm Calm - N/A   Clear
10:15 PM 37.4 °F - 33.8 °F 87% 30.21 in 10.0 mi Calm Calm - N/A   Clear
10:35 PM 37.4 °F - 33.8 °F 87% 30.21 in 10.0 mi Calm Calm - N/A   Clear
10:55 PM 37.4 °F 34.9 °F 33.8 °F 87% 30.21 in 10.0 mi East 3.5 mph - N/A   Clear
11:15 PM 35.6 °F - 32.0 °F 87% 30.22 in 10.0 mi Calm Calm - N/A   Clear
11:35 PM 37.4 °F 34.9 °F 33.8 °F 87% 30.21 in 10.0 mi ESE 3.5 mph - N/A   Clear
11:55 PM 35.6 °F - 33.8 °F 93% 30.21 in 10.0 mi Calm Calm - N/A   Clear